Wind_Speed
36 37 38 39 40 40 40 40 40 40 39 38 37 36 35 34 34 35 35 36 37 37 38 38 39 39 39 39 40 40 40 40 40 40 41 41 41 41 41 41 41 41 42 42 43 44 44 45 46 47 47 48 49 49 49 50 50 51 51 52 52 52 52 52 52 52 52 52 51 51 50 49 48 47 46 44 42 40 37 35 33 31 30 29 29 28
38 38 39 39 39 40 41 41 40 40 39 39 38 37 36 35 35 35 36 37 38 38 39 39 39 40 40 40 40 40 40 41 41 41 41 41 41 41 41 41 42 42 42 43 44 44 45 46 46 47 48 49 49 50 50 51 51 51 52 52 52 52 52 52 52 52 52 52 51 51 50 49 48 47 45 43 41 39 36 34 32 31 30 29 29 28
39 39 38 38 39 40 41 41 40 40 39 39 38 38 37 37 37 37 37 38 39 39 39 40 40 40 40 40 41 41 41 41 41 40 40 41 41 41 41 42 42 42 43 44 44 45 46 46 47 48 48 49 50 50 51 51 51 52 52 52 52 52 52 52 52 52 52 51 51 50 49 48 47 46 44 42 40 38 35 33 32 31 30 29 29 28
39 38 38 37 38 40 41 41 41 40 40 39 39 39 38 38 38 39 39 39 39 39 39 40 40 40 40 41 41 41 41 41 40 40 40 41 41 42 42 43 43 43 44 45 45 46 46 47 48 48 49 50 50 51 51 52 52 52 52 52 52 52 52 52 52 51 51 51 50 50 49 48 47 45 44 42 40 37 35 32 31 30 30 29 29 28
39 39 38 38 39 40 41 42 42 41 40 40 39 39 40 40 40 40 40 40 40 39 39 39 40 40 40 40 41 41 41 41 40 41 41 41 41 42 43 43 44 44 45 45 46 46 47 48 48 49 49 50 51 51 52 52 52 52 52 52 52 52 52 52 51 51 51 50 50 49 48 47 46 45 43 41 39 37 35 33 31 30 29 28 28 28
40 40 40 40 40 41 42 43 43 42 41 40 39 40 40 40 41 41 41 40 40 39 39 39 39 39 40 40 41 41 41 41 41 41 41 41 42 42 43 44 45 45 46 46 47 47 48 48 49 49 50 50 51 52 52 52 52 52 52 52 52 52 52 51 51 51 50 50 49 48 48 47 45 44 42 40 39 37 35 33 31 30 29 28 27 27
42 42 42 42 42 43 43 44 44 43 41 40 40 39 40 41 42 42 41 40 39 39 38 38 39 39 40 40 41 41 41 41 41 41 41 42 42 43 44 45 46 46 47 47 47 48 48 49 49 50 50 51 51 52 52 52 53 53 53 52 52 52 51 51 51 50 50 49 48 48 47 46 44 43 41 39 38 36 34 33 31 30 29 28 27 27
44 44 44 44 44 45 45 45 45 44 42 40 39 39 40 41 42 42 41 40 39 38 38 38 38 39 40 40 41 41 41 41 41 41 42 42 43 44 45 46 46 47 47 47 48 48 48 49 49 50 51 51 52 52 52 52 53 53 53 52 52 52 51 51 50 50 49 49 48 47 46 45 44 42 40 38 37 35 34 32 31 30 29 28 27 27
44 44 45 45 45 46 46 46 45 44 42 40 39 39 40 42 42 42 42 41 39 38 38 38 39 39 40 41 41 42 42 42 42 42 43 43 44 45 46 46 47 47 48 48 48 48 49 49 50 50 51 51 52 52 52 52 52 52 52 52 52 51 51 50 50 49 49 48 47 47 46 44 43 41 39 37 36 34 33 32 31 30 29 28 28 27
44 45 45 45 45 46 46 46 45 44 42 40 40 40 41 42 43 43 42 41 40 39 38 39 39 40 40 41 42 42 43 43 44 44 44 45 45 46 47 47 47 48 48 48 48 48 49 49 50 51 51 52 52 52 52 52 52 52 52 51 51 51 50 50 49 49 48 48 47 46 45 43 42 40 38 37 35 34 33 32 31 30 29 28 28 27
45 45 45 45 45 45 45 45 45 44 42 41 40 41 42 43 43 43 42 41 40 39 39 39 39 40 41 42 42 43 44 44 45 45 45 46 46 47 47 48 48 48 48 48 49 49 49 50 50 51 51 52 52 52 52 52 52 52 51 51 50 50 50 49 49 48 48 47 46 46 44 43 41 39 37 36 35 33 32 31 30 29 29 28 28 27
45 45 44 44 44 44 45 45 44 43 42 41 41 42 43 44 44 43 42 41 40 39 39 40 40 41 41 42 43 44 45 45 46 46 47 47 47 48 48 49 49 49 49 49 49 49 49 50 51 51 52 52 52 52 52 52 52 51 51 50 50 49 49 48 48 47 47 47 46 45 44 42 40 39 37 35 34 33 32 31 30 29 29 28 27 27
45 45 44 44 43 43 43 43 42 42 41 41 42 43 43 43 43 42 41 41 40 40 40 41 41 42 42 43 44 45 46 46 47 47 47 48 48 49 49 49 49 49 49 49 49 50 50 50 51 51 52 52 52 53 52 52 51 51 51 50 49 49 48 48 47 47 46 46 45 44 43 42 40 38 36 35 33 32 31 30 30 29 28 28 27 27
45 44 43 43 42 42 41 41 41 40 41 41 42 43 43 43 42 42 41 41 41 41 41 42 42 43 43 44 45 46 47 47 48 48 49 49 49 50 50 50 50 50 49 50 50 50 50 51 51 52 52 53 53 53 52 52 51 51 50 50 49 48 48 47 47 46 46 45 44 43 42 41 39 37 36 34 33 32 31 30 29 29 28 28 27 27
44 43 43 42 41 40 39 39 40 40 41 42 42 43 43 42 42 41 41 41 42 42 42 43 43 44 44 45 46 47 48 49 49 50 50 50 50 50 50 50 51 50 50 50 50 51 51 51 52 52 53 53 53 53 52 52 51 50 50 49 48 48 47 46 46 45 45 44 43 43 42 40 39 37 35 34 33 32 31 30 29 28 28 28 27 27
43 42 41 40 39 38 38 38 39 41 42 42 42 42 42 41 41 41 42 42 43 44 44 45 44 45 45 46 46 47 48 50 51 51 51 52 51 51 50 50 51 51 51 50 51 51 52 52 52 53 53 53 53 53 52 51 51 50 49 49 48 47 46 46 45 45 44 44 43 42 41 39 38 36 35 34 32 31 30 30 29 28 28 28 27 27
41 40 40 38 37 37 37 37 39 40 41 42 42 41 41 41 41 42 43 44 45 46 47 46 46 46 46 47 48 48 49 50 52 52 52 52 52 51 51 50 51 51 51 51 51 52 52 53 53 53 53 53 53 52 52 51 50 49 49 48 47 46 46 45 45 44 43 43 42 41 40 39 37 36 35 33 32 31 30 29 29 28 28 27 27 27
39 38 38 37 36 35 35 36 37 38 39 40 40 40 41 41 42 43 45 46 48 49 49 48 47 47 47 48 49 50 50 51 52 53 53 53 52 51 51 51 51 51 51 52 52 52 53 53 53 53 53 53 53 52 51 50 50 49 48 47 46 45 45 44 44 43 43 42 41 40 39 38 37 35 34 33 32 31 30 29 28 28 28 27 27 27
37 36 36 35 34 34 34 34 35 36 37 38 39 40 41 43 44 46 48 49 50 51 50 49 48 48 48 49 50 51 52 52 53 53 53 52 52 51 51 51 51 51 52 52 52 53 53 53 53 53 53 53 52 52 51 50 49 48 47 46 45 45 44 44 43 43 42 41 40 39 38 37 36 35 34 33 32 31 30 29 28 28 27 27 27 27
37 36 35 34 34 33 33 34 34 35 36 38 39 41 43 45 47 49 51 52 52 52 51 50 49 49 50 50 51 52 53 53 53 53 53 52 51 51 51 51 51 52 52 53 53 53 53 53 53 53 53 52 52 51 50 49 48 47 46 45 45 44 44 43 43 42 41 40 40 39 38 37 36 34 33 33 32 31 30 29 28 28 27 27 27 27
37 37 36 35 35 35 34 35 35 36 37 39 41 43 45 47 50 52 53 53 53 52 51 51 50 51 51 51 52 53 53 53 53 53 52 52 51 51 51 51 51 52 53 53 53 54 54 54 54 53 53 52 51 50 49 48 47 46 45 45 44 44 43 43 42 41 41 40 39 38 37 36 35 34 33 32 31 30 29 29 28 27 27 27 27 27
38 38 37 37 37 36 36 37 37 38 39 41 43 46 48 50 52 53 54 53 53 52 52 51 51 52 52 52 53 54 54 53 53 52 52 52 52 52 51 51 52 53 53 53 54 54 54 54 53 53 52 51 50 49 48 47 46 46 45 44 44 43 43 42 41 41 40 39 39 38 37 36 35 34 33 32 31 30 29 29 28 27 27 27 27 27
39 39 39 39 39 39 39 39 39 39 40 42 45 48 50 52 54 54 54 53 53 52 52 52 52 53 53 53 54 54 54 54 53 52 52 52 52 52 52 52 53 53 54 54 54 54 54 54 53 52 52 51 50 48 47 46 46 45 44 44 44 43 43 42 41 40 40 39 38 37 36 35 34 33 32 32 31 30 29 29 28 27 27 27 27 27
41 41 42 42 42 42 42 42 42 42 43 46 48 50 52 54 55 55 54 54 53 53 53 53 53 53 54 54 54 55 55 54 53 53 52 52 53 53 53 53 53 53 54 54 54 54 54 53 53 52 50 49 48 47 46 46 45 45 44 44 43 43 42 42 41 40 40 39 38 37 36 35 34 33 32 31 31 30 29 29 28 28 27 27 27 27
43 44 45 46 46 46 46 46 46 46 47 49 51 52 54 54 54 54 54 54 53 53 54 54 53 54 54 55 55 55 55 55 54 53 53 53 53 54 54 53 53 54 54 54 54 53 53 52 51 50 49 48 47 47 46 45 45 44 44 44 43 43 42 41 41 40 39 38 37 36 35 34 34 33 32 31 31 30 29 29 28 28 27 27 27 27
45 47 47 48 48 48 48 48 49 49 50 51 52 52 53 53 53 53 53 53 54 54 54 54 54 54 55 55 55 56 56 55 54 53 53 53 54 54 54 54 53 53 54 54 53 52 51 51 50 49 47 47 46 46 45 45 45 44 44 44 43 42 42 41 40 39 39 38 37 36 35 34 33 32 32 31 30 30 29 29 28 28 28 27 27 27
47 48 48 48 48 48 48 48 49 49 50 50 51 52 52 53 53 54 54 54 55 54 54 54 55 56 56 56 56 56 56 55 54 54 53 53 54 54 54 54 53 53 53 53 52 51 50 49 48 48 47 46 46 45 45 45 45 44 44 43 43 42 41 40 40 39 38 37 37 36 35 34 33 32 31 31 30 29 29 28 28 28 28 28 27 27
48 48 48 48 48 48 48 48 49 50 50 51 52 53 54 54 55 55 56 56 55 55 55 55 56 56 57 57 56 56 55 54 54 54 54 53 53 54 54 53 53 52 52 51 51 50 48 47 47 47 47 46 45 45 45 45 44 44 43 43 42 41 41 40 39 38 38 37 36 35 34 33 32 32 31 30 30 29 29 28 28 28 28 28 28 28
50 50 51 51 51 52 52 52 53 53 54 55 55 56 57 57 57 57 57 57 56 56 56 57 57 57 57 56 56 55 54 54 54 54 54 53 53 53 53 52 52 51 50 50 50 49 48 46 46 46 46 46 46 45 44 44 44 43 43 42 41 40 40 39 38 38 37 36 36 35 34 33 32 31 31 30 29 29 28 28 28 28 28 28 28 28
51 52 53 54 55 55 56 56 57 57 57 58 58 58 58 58 58 58 58 58 57 57 57 57 57 57 56 55 55 54 54 54 54 53 53 53 53 53 52 51 51 50 49 48 48 48 48 47 45 45 45 45 45 45 44 43 43 42 42 41 40 40 39 38 38 37 37 36 35 34 33 32 32 31 30 30 29 29 28 28 28 28 28 28 28 28
52 53 54 55 56 56 57 58 58 58 58 58 59 59 59 59 59 59 59 58 58 58 58 57 57 56 55 54 53 53 54 54 54 53 52 51 52 52 51 50 50 50 49 47 46 46 47 48 47 45 44 44 44 44 43 42 42 41 41 40 40 39 38 38 37 37 36 35 34 33 33 32 31 31 30 29 29 29 28 28 28 28 27 27 28 28
53 54 55 55 56 57 57 57 58 58 58 58 58 58 59 59 59 59 59 59 59 58 57 57 56 55 55 54 53 53 53 53 53 53 51 50 51 51 50 49 48 49 48 47 45 45 45 46 47 46 44 43 42 42 42 41 41 40 40 39 39 39 38 38 37 36 36 35 34 33 32 32 31 30 30 29 29 28 28 28 28 28 27 27 27 27
54 54 55 55 56 56 56 57 57 57 57 58 58 58 58 59 59 59 59 59 58 57 56 55 55 54 54 53 53 52 52 52 52 52 50 50 49 50 49 48 47 47 47 46 45 45 44 44 45 45 44 43 42 41 41 40 40 40 39 39 39 39 38 37 37 36 35 34 34 33 32 31 31 30 30 29 29 28 28 28 28 27 27 27 27 27
54 54 55 55 55 56 56 56 56 57 57 57 58 58 58 59 59 59 58 58 57 56 55 54 53 53 53 52 52 52 51 51 51 50 49 48 48 48 48 47 46 46 46 45 45 44 43 43 43 43 43 43 42 41 40 40 40 40 39 39 38 38 38 37 36 35 35 34 33 33 32 31 31 30 30 29 28 28 28 28 28 27 27 27 27 27
54 55 55 55 55 55 55 56 56 56 56 57 57 58 58 58 58 57 56 55 55 54 54 53 52 52 51 51 50 50 50 50 49 48 47 46 46 46 46 46 45 44 44 44 44 43 43 42 42 42 42 42 42 41 40 39 39 39 39 38 38 38 37 37 36 35 34 34 33 32 32 31 31 30 29 29 28 28 28 28 27 27 27 27 27 27
54 54 55 55 55 55 55 55 56 56 56 56 57 57 56 56 56 55 54 54 53 53 53 52 51 51 50 49 49 48 48 48 47 46 45 45 45 45 45 45 44 43 42 43 43 42 42 42 42 41 41 41 41 41 40 39 39 38 38 38 38 37 37 36 36 35 34 34 33 32 32 31 31 30 29 29 29 28 28 28 27 27 27 27 27 27
54 54 54 54 54 55 55 55 55 55 55 55 55 55 55 54 54 54 54 53 53 52 51 51 50 49 49 48 47 47 46 46 46 45 44 44 43 43 43 44 43 42 42 41 42 42 42 41 41 41 41 40 40 40 40 39 39 38 38 37 37 37 36 36 35 35 34 34 33 33 32 31 31 30 30 29 29 28 28 28 27 27 27 27 27 27
54 54 54 54 54 54 54 55 55 54 54 54 54 54 54 54 54 53 53 52 51 51 50 49 49 48 47 47 46 45 45 45 44 44 44 44 43 42 42 43 43 42 41 41 41 41 41 41 41 41 41 40 40 40 39 39 38 38 37 37 37 36 36 36 35 35 34 34 33 33 32 31 31 30 30 29 29 28 28 28 28 27 27 27 27 27
54 54 54 54 54 54 54 54 54 54 54 54 54 54 54 53 53 53 52 51 50 49 49 48 47 47 46 45 45 44 44 44 43 43 43 43 43 42 42 42 42 42 42 41 41 41 41 41 41 40 40 40 40 40 39 38 38 38 37 37 37 36 36 36 35 35 35 34 33 33 32 32 31 31 30 29 29 28 28 28 28 27 27 27 27 27
54 54 54 54 54 54 54 54 54 54 54 54 54 54 53 53 52 51 51 50 49 48 47 47 46 45 45 44 44 43 43 43 43 43 43 42 42 42 42 42 42 42 42 41 41 41 40 40 40 40 40 40 40 39 39 38 38 37 37 37 37 36 36 36 35 35 35 34 34 33 33 32 32 31 30 30 29 29 29 28 28 28 28 27 27 27
54 54 54 55 54 54 55 55 55 54 54 54 53 53 52 51 50 50 49 48 47 46 46 45 44 44 44 43 43 43 42 43 43 43 43 42 42 42 42 42 42 42 42 41 41 41 40 40 40 40 40 39 39 39 39 38 38 37 37 37 37 37 36 36 35 35 35 34 34 33 33 33 32 32 31 31 30 30 29 29 28 28 28 28 28 27
55 55 55 55 55 55 55 55 54 54 53 52 51 51 50 49 48 48 47 46 46 45 44 44 43 43 43 43 43 42 42 42 42 43 43 43 42 42 42 42 42 41 41 41 41 41 40 40 40 40 39 39 39 39 39 38 38 37 37 37 37 37 37 36 35 35 35 35 34 34 33 33 33 32 32 31 31 30 30 29 29 29 28 28 28 28
55 55 55 55 55 55 54 54 53 52 51 50 49 49 48 47 46 45 45 45 44 44 43 43 43 42 43 43 43 43 43 42 42 43 42 42 42 42 42 42 42 41 41 41 41 41 40 40 39 39 39 39 39 39 39 38 38 38 37 37 37 37 37 36 36 35 35 35 34 34 34 34 33 33 32 32 31 31 30 30 29 29 29 29 29 28
55 55 55 54 54 53 52 51 50 49 48 47 47 46 45 44 44 43 43 43 43 43 43 43 43 42 43 43 43 43 43 43 43 43 43 42 42 42 42 42 42 42 41 41 41 41 41 40 40 39 39 39 39 39 39 39 38 38 38 38 38 38 37 37 36 36 35 35 35 35 34 34 34 34 33 32 32 31 31 30 30 30 30 29 29 29
54 53 52 52 51 50 49 48 47 46 45 45 44 44 43 43 42 42 43 43 43 43 43 43 43 43 43 43 43 43 43 44 44 43 43 43 43 42 42 42 42 42 42 41 41 41 41 40 40 40 39 39 39 39 39 39 39 39 38 38 38 38 38 37 37 36 36 35 35 35 35 35 34 34 34 33 32 32 31 31 31 30 30 30 30 30
51 50 49 48 47 46 45 45 44 44 43 43 43 43 42 42 42 43 43 43 43 44 44 44 44 43 44 44 44 44 44 44 44 44 44 43 43 43 43 43 43 42 42 42 41 41 41 40 40 40 40 40 40 39 39 39 39 39 39 39 38 38 38 38 37 37 37 36 35 35 35 35 35 34 34 33 33 32 32 31 31 31 31 31 30 30
47 46 46 45 44 44 44 43 43 42 42 43 43 43 42 43 43 43 44 44 44 44 45 45 45 45 45 45 45 45 44 45 45 45 44 44 44 43 43 43 43 43 42 42 42 41 41 41 41 40 40 40 40 40 40 39 39 39 39 39 39 39 38 38 38 38 37 37 36 35 35 35 35 35 35 34 34 33 32 32 32 32 32 31 31 31
45 44 44 44 43 43 43 43 43 42 43 43 43 43 43 43 44 44 45 45 45 45 45 45 45 45 45 45 45 45 45 45 45 45 45 44 44 44 44 43 43 43 43 42 42 42 42 41 41 41 40 40 40 40 40 40 40 40 40 40 39 39 39 38 38 38 38 37 36 36 35 35 35 35 35 35 34 34 33 33 32 32 32 32 32 32
44 43 43 43 43 43 43 43 43 43 43 44 44 44 44 44 45 45 45 46 46 46 46 46 46 46 46 46 46 45 45 45 45 45 45 44 44 44 44 43 43 43 43 43 42 42 42 42 42 41 41 41 41 41 41 40 40 40 40 40 40 39 39 39 39 38 38 38 37 36 36 36 36 36 36 35 35 34 34 33 33 33 33 33 33 33
43 43 44 44 44 44 44 44 44 44 44 45 45 45 45 45 45 46 46 46 46 46 46 46 46 46 46 46 46 45 45 45 45 45 45 45 44 44 44 44 43 43 43 43 43 43 43 42 42 42 42 41 41 42 41 41 41 41 40 40 40 40 40 39 39 39 39 38 37 37 36 36 36 36 36 36 36 35 34 34 33 33 33 34 34 34
44 44 44 44 44 45 45 45 45 45 45 46 46 46 46 46 46 46 46 46 46 46 46 46 46 46 45 46 46 45 45 45 45 45 45 45 45 45 44 44 44 44 44 44 44 43 43 43 43 43 42 42 42 42 42 42 41 41 41 41 40 40 40 40 40 39 39 39 38 37 36 36 36 36 36 36 36 36 35 34 34 34 34 34 35 35
Wind_Direction
275 277 278 279 280 280 281 282 284 285 285 283 281 279 278 277 278 278 278 279 280 281 282 283 284 285 285 286 286 287 287 288 288 289 290 290 291 291 292 293 293 294 295 296 297 297 297 298 298 298 299 299 300 300 301 302 303 303 305 306 307 308 310 311 312 313 314 315 317 318 319 320 320 321 321 321 320 320 318 317 314 312 309 307 305 304
275 277 278 279 280 279 279 280 282 284 284 282 279 277 276 276 276 277 277 278 279 281 282 284 285 285 286 286 286 287 287 288 289 289 290 291 291 292 292 293 293 294 295 296 296 296 297 297 297 298 298 299 299 300 300 301 302 303 304 305 307 308 309 310 312 313 314 315 316 317 318 319 320 320 320 320 320 319 318 316 314 311 308 306 305 303
274 276 277 278 278 277 277 279 281 283 283 280 278 276 275 275 276 276 277 278 279 281 282 284 285 286 286 286 287 287 288 288 289 290 290 291 292 292 292 293 293 294 294 295 295 296 296 296 297 297 297 298 299 299 300 301 302 303 304 305 306 308 309 310 311 312 314 315 316 317 318 319 319 319 319 319 318 317 316 315 312 309 307 305 304 303
274 275 275 275 274 274 275 278 281 282 281 279 276 274 274 274 275 275 276 277 279 281 282 284 285 286 286 286 287 287 288 289 289 290 291 291 291 292 292 293 293 293 294 294 294 295 295 295 296 296 297 298 298 299 300 300 301 302 303 305 306 307 309 310 311 312 313 315 316 317 318 318 318 318 318 317 317 316 315 313 311 308 305 304 304 303
272 273 272 271 270 270 273 276 279 280 280 277 275 273 273 273 273 274 275 276 278 281 283 284 285 286 286 286 287 287 288 288 289 290 290 291 291 292 292 292 293 293 293 293 294 294 294 294 295 296 296 297 298 299 299 300 301 302 303 304 306 307 308 310 311 312 313 315 316 317 317 318 318 317 317 316 316 315 314 313 311 308 306 304 303 303
271 271 271 270 269 269 271 274 276 278 277 275 274 272 272 272 272 272 274 276 278 280 283 284 285 286 286 286 286 287 287 288 288 289 289 290 291 291 292 292 292 292 292 292 293 293 293 294 294 295 296 296 297 298 299 300 301 302 303 304 305 307 308 310 311 312 313 314 315 316 317 317 317 317 316 315 315 314 313 312 311 309 307 305 304 302
271 271 271 271 270 270 271 273 274 275 274 274 273 272 271 270 270 271 273 275 277 280 282 283 285 285 286 286 286 286 286 286 287 287 288 289 290 291 291 291 291 291 291 291 292 292 292 293 293 294 295 296 297 298 299 300 301 302 303 304 305 306 308 309 310 312 313 314 315 316 316 316 316 315 315 314 314 313 312 311 310 309 307 305 304 302
271 271 272 271 271 271 271 272 272 272 272 272 272 271 270 269 269 270 272 274 277 279 281 283 284 286 286 286 286 286 285 285 286 286 287 288 289 290 290 290 290 290 290 290 291 291 291 292 293 294 295 296 297 298 299 300 301 302 303 304 305 306 307 309 310 311 312 313 314 315 315 315 315 314 314 313 312 312 311 310 309 308 307 305 304 302
272 272 272 272 272 271 271 271 271 271 271 271 271 270 269 268 269 270 271 273 276 278 280 282 284 286 287 286 286 285 285 284 285 285 286 287 288 289 290 290 290 289 290 290 290 290 291 291 292 293 294 295 296 297 298 300 301 302 303 304 305 306 307 308 310 311 312 313 313 314 314 314 313 313 312 312 311 310 310 309 308 307 305 304 303 302
272 272 272 272 271 271 271 270 270 270 270 270 271 270 269 268 269 270 271 273 275 277 279 282 284 286 287 287 286 285 284 284 284 284 285 286 287 288 289 289 289 289 289 289 289 290 290 291 292 293 294 295 296 297 298 299 301 302 303 304 305 306 307 308 309 310 311 312 312 313 313 313 312 311 311 310 310 309 308 307 306 305 304 303 302 301
272 272 272 271 271 270 270 269 269 269 270 270 270 269 268 268 269 270 271 272 274 276 279 282 284 286 287 287 286 285 284 283 283 283 284 285 287 288 288 288 288 288 288 289 289 289 290 291 292 293 294 295 296 297 298 299 301 302 303 304 305 306 307 308 309 310 311 311 311 312 312 311 311 310 309 309 308 307 307 306 305 303 302 301 300 300
272 272 271 271 271 270 269 269 269 269 270 269 268 267 267 268 269 270 271 272 274 276 279 281 284 286 287 288 287 286 284 283 282 283 284 285 286 287 288 288 288 288 288 288 289 289 290 291 292 293 294 295 296 297 298 299 300 301 302 303 304 305 306 307 308 309 310 310 310 310 310 310 309 309 308 307 306 306 305 304 303 302 300 299 299 298
273 273 273 272 272 271 271 270 270 270 268 266 264 264 266 268 269 270 270 272 274 276 279 281 283 285 287 288 287 287 285 284 283 283 284 285 286 287 288 288 288 288 288 288 289 289 290 291 292 293 294 295 296 297 298 299 300 301 302 303 304 305 306 307 308 308 309 309 309 309 309 308 308 307 306 306 305 305 304 303 302 300 299 298 297 297
274 274 274 274 273 272 272 271 270 268 265 263 263 264 266 268 269 270 270 272 274 276 278 280 282 284 286 287 287 287 286 285 284 284 285 285 286 287 288 288 288 288 288 289 289 290 291 291 292 293 294 295 296 297 298 299 300 300 301 302 303 304 305 306 307 307 308 308 308 308 307 307 306 306 305 304 304 303 302 302 300 299 297 296 296 295
275 275 274 273 272 271 270 269 267 265 263 263 263 265 267 268 268 269 270 272 273 275 277 279 281 283 285 286 287 287 287 286 286 286 286 286 287 287 288 288 288 288 289 289 290 290 291 292 293 293 294 295 296 297 298 299 299 300 301 302 303 303 304 305 306 306 306 306 306 306 306 305 305 304 303 303 302 302 301 300 299 298 296 295 294 294
274 273 272 271 270 268 267 265 264 263 263 263 265 267 268 268 268 268 270 271 273 274 275 277 279 282 284 286 287 287 287 287 287 287 287 287 287 287 288 288 288 288 288 289 290 290 291 292 293 293 294 295 296 297 298 298 299 300 300 301 302 303 304 304 305 305 305 305 305 304 304 304 303 303 302 302 301 301 300 299 298 297 295 294 293 292
272 271 270 268 266 264 263 261 261 261 262 264 266 267 267 267 268 269 270 272 273 274 274 276 279 282 285 286 287 287 288 288 288 288 288 288 288 287 287 287 287 288 288 289 290 290 291 292 293 294 294 295 296 297 297 298 298 299 300 301 301 302 303 303 304 304 304 303 303 303 302 302 302 301 301 301 300 300 299 298 297 296 294 293 292 290
269 268 267 266 263 261 260 258 258 259 261 263 264 265 266 267 268 270 271 272 273 273 274 276 280 283 286 287 288 288 288 288 288 288 288 288 288 287 287 287 287 287 288 289 289 290 291 292 293 294 295 295 296 296 297 297 298 299 299 300 301 301 302 302 302 302 302 302 302 301 301 301 300 300 300 300 299 299 298 297 296 295 294 292 290 289
267 266 265 264 262 260 258 257 257 258 260 261 263 265 266 268 270 271 272 272 272 272 274 277 280 284 286 288 288 288 289 288 288 288 288 288 287 286 286 286 287 287 288 289 289 290 291 292 293 294 294 295 295 296 296 297 298 298 299 299 300 301 301 301 301 301 300 300 300 300 299 300 299 299 299 299 298 298 297 296 295 294 293 291 289 288
265 265 264 263 261 260 258 258 258 259 260 262 264 266 268 269 270 271 271 271 271 272 274 278 282 285 287 288 288 289 289 289 288 288 288 287 286 286 286 286 287 287 288 289 290 291 291 292 293 294 294 295 295 296 296 297 297 298 298 299 299 300 300 300 299 299 299 298 298 298 298 298 298 298 298 298 297 297 296 295 295 293 292 290 288 286
263 264 264 263 262 261 261 261 261 262 263 265 266 268 268 269 269 269 269 269 270 272 275 279 283 285 287 288 289 289 289 289 288 288 287 287 286 286 286 286 287 288 289 289 290 291 292 292 293 293 294 294 295 295 296 296 296 297 297 298 298 299 299 298 298 297 297 297 297 297 297 297 297 297 297 297 296 295 295 294 293 292 291 289 287 285
262 263 264 264 264 264 264 265 265 265 266 266 267 267 268 268 268 268 269 269 271 273 277 281 284 286 287 288 289 289 289 288 288 287 287 286 286 286 286 286 287 288 289 290 290 291 292 292 292 293 293 294 294 294 295 295 296 296 297 297 297 297 297 297 296 296 295 295 296 296 296 296 296 296 296 295 295 294 294 293 292 291 290 288 286 284
263 264 265 266 267 267 268 268 268 268 267 267 266 266 266 267 267 268 269 270 272 275 278 281 284 286 287 288 289 289 288 288 287 286 286 286 286 286 287 287 288 289 289 290 291 291 292 292 292 293 293 293 294 294 294 295 295 296 296 296 296 296 296 295 295 294 294 294 294 294 295 295 295 295 295 295 294 294 293 292 291 290 289 288 286 283
265 267 268 269 270 270 271 270 270 269 267 266 265 265 265 266 267 269 270 272 274 277 280 282 285 286 287 288 288 288 287 287 286 286 285 286 286 287 287 288 289 290 290 290 291 291 292 292 292 292 293 293 293 293 294 294 295 295 295 295 295 295 294 294 293 293 293 293 293 293 293 294 294 294 294 294 293 293 292 291 290 289 289 287 286 283
269 270 271 271 271 271 270 269 268 267 265 264 264 264 265 267 268 270 272 274 276 279 282 284 286 287 287 288 287 287 286 285 285 285 285 286 287 287 288 289 289 290 290 291 291 291 292 292 292 292 293 293 293 293 294 294 294 294 295 294 294 294 293 293 292 292 292 292 292 292 292 293 293 293 293 293 293 292 291 290 290 289 288 287 286 284
269 270 270 270 269 268 267 266 265 264 263 263 264 265 267 269 271 273 275 277 279 281 283 285 286 287 287 287 286 286 285 285 284 285 285 286 287 288 288 289 290 290 290 291 291 291 291 292 292 292 293 293 293 293 294 294 294 294 294 293 293 293 292 292 291 291 291 291 291 291 292 292 292 292 292 292 292 291 291 290 289 288 288 287 286 284
267 267 267 267 266 265 264 263 263 263 264 265 267 268 270 272 274 276 278 280 282 283 285 286 286 286 286 286 285 285 284 284 284 285 286 287 288 288 289 290 290 290 290 291 291 291 291 291 292 292 293 293 293 293 293 293 293 293 293 293 292 292 291 291 290 290 290 291 291 291 291 291 291 291 291 291 291 291 290 289 288 287 287 286 286 285
264 265 265 265 265 265 265 265 266 267 268 269 271 272 274 275 278 279 281 282 283 284 285 285 286 286 285 285 284 284 284 284 285 286 287 288 288 288 289 290 290 290 290 291 291 291 291 291 291 292 292 293 293 293 293 293 293 292 292 292 291 291 290 290 290 290 290 290 290 291 291 291 291 291 291 291 290 290 289 288 287 287 286 286 285 285
262 263 264 265 266 266 267 268 269 270 271 273 274 275 277 278 280 281 282 283 284 284 285 285 285 284 284 284 284 284 284 285 286 287 288 288 289 289 289 290 290 290 290 291 291 291 291 291 291 291 292 292 293 292 292 292 292 292 292 291 291 290 290 290 289 289 290 290 290 290 290 290 290 290 290 290 290 289 288 287 287 286 285 285 285 284
261 262 263 264 266 267 268 269 271 272 273 274 276 277 278 279 280 281 282 283 284 284 284 284 284 283 283 283 284 285 285 286 287 287 288 289 289 289 290 290 290 290 290 290 291 291 291 291 290 291 291 292 292 292 292 292 291 291 291 291 290 290 290 289 289 289 289 289 289 289 289 289 289 289 289 289 289 288 288 287 286 285 284 284 284 284
263 263 264 265 266 267 269 270 271 273 274 275 276 277 279 280 281 281 282 282 283 283 283 283 283 283 283 284 285 286 287 287 287 288 289 289 289 289 290 290 290 290 289 290 290 290 291 291 291 291 291 291 291 291 291 291 291 291 290 290 290 290 289 289 289 289 289 289 289 289 288 288 288 288 288 288 288 287 287 286 285 284 284 284 283 283
265 265 266 267 268 269 270 271 272 273 274 276 277 277 278 279 280 281 281 281 281 282 282 282 283 283 284 285 286 287 287 288 288 289 289 289 289 289 290 289 289 289 290 290 290 290 290 291 291 291 291 291 291 291 291 291 291 290 290 290 290 289 289 289 289 289 289 288 288 288 288 287 287 287 287 286 287 286 286 285 284 284 283 283 283 283
267 267 268 268 269 270 271 272 273 274 275 276 276 277 278 278 279 279 280 280 281 281 282 283 284 284 285 286 287 287 287 288 289 289 290 290 289 289 289 289 289 289 290 290 290 290 290 290 291 291 292 291 291 291 291 291 291 290 290 290 290 289 289 289 289 288 288 288 287 287 287 286 286 285 285 285 285 285 284 284 283 283 283 282 283 283
268 269 269 270 271 271 272 273 273 274 275 275 276 277 277 278 278 279 279 280 281 282 283 284 285 286 286 287 287 288 288 288 288 289 289 289 289 289 289 289 289 289 290 290 291 291 291 290 291 291 291 291 291 291 290 290 290 290 290 290 290 289 289 289 288 288 287 287 286 286 285 285 284 284 284 284 284 283 283 283 282 282 282 282 282 282
269 270 270 271 272 272 273 273 274 274 275 275 276 277 277 278 278 279 280 281 282 283 284 285 286 286 287 287 287 288 288 288 288 288 288 288 288 289 289 289 289 289 290 290 290 290 291 291 290 290 291 291 291 291 291 290 290 290 290 290 290 289 289 289 288 287 286 286 285 284 284 283 283 282 282 282 282 282 282 281 281 281 281 281 281 282
270 270 271 272 272 273 273 274 274 275 275 276 276 277 277 278 279 280 281 282 283 284 285 285 286 286 286 286 287 287 287 287 288 288 288 287 288 288 288 288 289 289 289 289 290 290 290 290 290 290 290 290 290 291 291 291 290 290 290 290 290 289 289 288 287 286 286 285 284 283 282 282 281 280 280 280 280 280 280 280 280 280 280 280 280 281
271 271 272 272 273 273 274 274 275 275 276 276 277 277 278 279 280 281 282 283 284 285 285 285 285 285 285 286 286 286 286 286 287 287 287 287 287 287 287 288 288 288 289 289 289 289 290 290 290 290 290 290 290 290 291 291 291 291 290 290 290 289 289 288 287 286 285 284 283 282 281 280 279 279 278 278 278 278 278 278 278 279 279 279 279 280
272 272 273 273 274 274 274 275 275 276 276 277 278 279 280 281 282 283 283 284 284 284 284 284 284 284 285 285 285 285 285 285 285 286 286 286 286 286 287 287 287 288 288 288 288 289 289 289 290 290 290 290 290 290 291 291 291 291 291 290 290 289 289 288 287 286 285 284 283 282 280 279 278 277 277 277 277 277 277 277 277 277 277 278 278 279
273 273 273 274 274 275 275 276 276 277 278 279 279 280 281 282 282 283 283 283 283 283 283 283 283 284 284 284 284 284 284 284 284 285 285 285 286 286 286 287 287 288 288 288 288 288 289 289 289 289 290 290 290 291 291 291 291 291 291 291 290 289 289 288 287 286 285 284 283 281 280 278 277 276 275 275 275 275 275 275 276 276 276 277 277 278
273 273 274 274 275 275 276 277 277 278 279 280 280 281 281 282 282 282 282 282 282 282 282 282 282 282 283 283 283 283 284 284 284 284 285 285 286 286 287 287 287 288 288 288 288 288 289 289 289 289 290 290 290 291 291 291 292 291 291 291 290 290 289 289 288 287 286 284 283 281 279 277 276 275 274 274 273 274 274 274 274 275 275 275 276 277
274 274 275 275 276 276 277 278 278 279 279 280 280 280 281 281 281 281 281 281 281 281 281 281 281 282 282 282 282 283 283 284 284 285 285 285 286 286 287 287 287 288 288 288 288 289 289 289 289 289 290 290 290 291 291 291 291 291 291 290 290 290 290 289 288 288 286 285 283 281 279 277 275 274 273 272 272 272 273 273 273 273 274 274 275 275
274 274 275 276 276 277 277 278 278 278 279 279 279 279 279 279 280 280 280 280 280 280 280 281 281 281 282 282 283 283 283 284 284 285 285 286 286 286 287 287 287 287 288 288 288 288 289 289 289 289 290 290 290 290 291 291 291 291 291 290 290 290 290 289 289 288 286 284 283 281 279 277 275 273 272 272 271 271 272 272 272 272 272 273 273 274
274 275 275 275 276 276 276 277 277 277 277 277 278 278 278 278 279 279 279 279 280 280 280 281 281 282 282 283 283 284 284 284 284 284 285 285 286 286 286 286 287 287 287 287 288 288 288 289 289 289 289 290 290 290 290 290 291 290 290 290 290 289 289 289 289 288 286 284 282 281 278 276 274 273 271 271 271 271 271 271 271 271 271 272 272 273
274 274 274 275 275 275 275 275 275 276 276 276 276 277 277 278 278 279 279 279 280 280 281 281 282 282 282 283 283 284 284 284 284 284 284 285 285 285 286 286 286 286 287 287 287 287 288 288 288 288 289 289 289 289 290 290 290 289 289 289 289 289 288 288 288 287 285 284 282 280 278 276 274 272 271 270 270 270 270 270 269 269 270 270 271 272
274 274 274 274 274 274 274 274 274 275 275 275 276 276 277 278 278 279 279 280 280 281 281 282 282 283 283 283 283 283 284 284 284 284 284 284 285 285 285 285 285 286 286 286 287 287 287 288 288 288 288 288 288 288 289 289 289 289 288 288 288 288 288 288 287 286 285 284 282 280 278 276 274 272 271 270 270 269 269 269 268 268 268 268 269 270
272 273 273 273 273 273 273 273 274 274 275 276 276 277 278 278 279 279 280 280 281 281 282 282 283 283 283 283 283 283 283 284 284 284 284 284 284 284 284 285 285 285 286 286 286 287 287 287 287 288 288 288 288 288 288 288 288 288 287 287 287 287 287 287 286 285 284 283 282 280 277 275 273 272 271 270 269 269 268 268 267 267 267 267 267 268
271 271 272 272 272 273 273 274 274 275 276 276 277 277 278 279 280 280 281 281 281 282 282 283 283 283 283 283 283 283 283 283 283 284 284 284 284 284 284 284 285 285 285 286 286 286 286 287 287 287 287 287 287 287 287 287 287 287 287 286 286 286 286 285 285 284 284 282 281 279 277 275 273 271 270 269 269 268 268 267 267 266 265 265 265 266
270 271 271 272 272 273 274 274 275 276 276 277 278 278 279 279 280 280 281 281 281 282 282 282 283 283 283 283 283 283 283 283 283 283 284 284 284 284 284 284 285 285 285 285 285 286 286 286 286 287 287 287 287 287 287 286 286 286 286 286 285 285 284 284 284 283 282 281 280 278 276 274 272 271 269 269 268 268 267 267 266 265 265 264 264 264
270 271 271 272 273 274 274 275 276 277 277 278 278 279 279 280 280 280 281 281 281 282 282 282 282 282 283 283 283 283 283 283 283 283 283 283 284 284 284 284 284 284 285 285 285 285 285 285 286 286 287 287 287 286 286 286 286 285 285 285 284 284 283 283 282 282 281 280 279 278 276 274 272 270 269 268 268 268 267 267 266 265 264 263 262 262
270 271 272 273 274 275 275 276 277 277 278 278 279 279 280 280 280 280 280 281 281 281 281 282 282 282 282 282 282 283 283 283 283 283 283 283 283 283 283 284 284 284 284 284 285 285 285 285 286 286 286 286 286 286 286 285 285 284 284 283 283 283 282 282 281 281 280 279 278 277 275 274 272 270 269 268 268 268 267 266 265 264 263 262 261 261
271 272 273 274 275 276 276 277 277 278 278 279 279 279 280 280 280 280 280 280 281 281 281 281 281 281 281 282 282 282 282 282 282 282 282 282 283 283 283 283 283 284 284 284 284 285 285 285 285 286 286 286 286 285 285 285 284 284 283 282 282 282 281 280 280 279 279 278 277 276 275 273 272 270 269 268 268 268 267 266 265 264 262 261 260 260
Height
5739 5739 5740 5740 5740 5740 5740 5740 5740 5740 5739 5738 5738 5738 5737 5737 5736 5736 5736 5735 5734 5734 5733 5732 5732 5731 5731 5731 5730 5730 5729 5728 5728 5727 5726 5726 5725 5724 5724 5723 5722 5721 5721 5720 5719 5718 5717 5716 5715 5714 5712 5711 5710 5709 5708 5706 5705 5704 5702 5701 5700 5700 5700 5696 5695 5694 5692 5691 5690 5689 5688 5687 5686 5684 5682 5681 5680 5679 5678 5676 5675 5674 5672 5671 5670 5669
5736 5736 5736 5736 5737 5737 5736 5737 5737 5736 5736 5736 5735 5735 5735 5734 5734 5733 5733 5732 5731 5731 5731 5730 5729 5729 5728 5728 5727 5727 5726 5726 5725 5725 5724 5723 5722 5722 5721 5721 5720 5719 5718 5717 5716 5716 5715 5714 5712 5711 5710 5709 5707 5706 5705 5704 5703 5702 5700 5699 5698 5697 5696 5694 5693 5691 5690 5689 5688 5687 5686 5685 5684 5682 5681 5679 5678 5676 5675 5674 5673 5672 5671 5669 5668 5667
5733 5733 5733 5733 5734 5734 5734 5734 5734 5733 5733 5732 5732 5732 5732 5731 5731 5731 5730 5729 5729 5728 5728 5727 5727 5726 5726 5725 5725 5724 5723 5723 5722 5722 5721 5721 5720 5719 5718 5718 5717 5717 5716 5715 5714 5713 5712 5711 5710 5709 5707 5706 5705 5704 5703 5702 5701 5699 5698 5697 5696 5694 5693 5692 5691 5689 5688 5687 5686 5684 5683 5682 5681 5680 5679 5678 5677 5676 5675 5673 5672 5671 5669 5667 5666 5666
5731 5730 5730 5730 5730 5731 5731 5731 5731 5730 5730 5730 5729 5729 5729 5729 5728 5728 5727 5727 5726 5726 5725 5725 5724 5724 5723 5722 5722 5721 5721 5720 5720 5719 5719 5718 5717 5717 5716 5715 5715 5714 5713 5713 5712 5711 5710 5709 5708 5706 5705 5704 5702 5701 5700 5699 5698 5697 5696 5695 5693 5692 5691 5689 5688 5687 5686 5684 5683 5682 5681 5680 5678 5677 5676 5676 5675 5675 5674 5673 5671 5670 5668 5666 5665 5664
5728 5727 5727 5726 5726 5726 5727 5727 5727 5727 5727 5726 5726 5726 5726 5726 5726 5725 5724 5724 5723 5723 5722 5722 5721 5721 5720 5720 5719 5719 5718 5718 5717 5717 5716 5716 5715 5714 5713 5713 5712 5711 5711 5710 5710 5709 5707 5706 5705 5704 5703 5701 5700 5699 5697 5696 5696 5694 5693 5692 5691 5690 5688 5687 5686 5685 5683 5682 5681 5679 5678 5677 5676 5675 5674 5673 5672 5671 5671 5670 5669 5668 5666 5665 5663 5662
5725 5724 5724 5724 5723 5723 5724 5724 5724 5724 5724 5723 5723 5723 5723 5723 5722 5722 5721 5721 5721 5720 5720 5720 5719 5718 5718 5717 5717 5716 5716 5716 5715 5714 5714 5713 5713 5712 5711 5710 5710 5709 5708 5708 5707 5706 5705 5704 5702 5701 5700 5699 5698 5696 5695 5694 5693 5692 5691 5690 5689 5687 5686 5685 5683 5682 5681 5680 5678 5677 5676 5674 5673 5672 5671 5670 5669 5668 5668 5667 5666 5666 5665 5663 5662 5661
5721 5721 5721 5721 5720 5720 5720 5720 5720 5720 5721 5721 5721 5720 5720 5720 5720 5719 5718 5718 5718 5718 5717 5717 5716 5716 5716 5715 5714 5714 5713 5713 5712 5712 5711 5711 5710 5709 5709 5708 5707 5706 5706 5705 5704 5703 5702 5701 5700 5699 5697 5696 5695 5694 5692 5691 5690 5689 5688 5687 5686 5685 5684 5682 5681 5680 5679 5677 5676 5675 5673 5672 5671 5670 5669 5668 5667 5666 5665 5664 5664 5663 5662 5661 5660 5659
5718 5718 5718 5718 5717 5717 5717 5717 5717 5717 5718 5718 5718 5717 5717 5717 5716 5716 5716 5716 5715 5715 5715 5714 5714 5714 5713 5712 5712 5711 5711 5710 5710 5709 5709 5708 5707 5707 5706 5705 5704 5704 5703 5702 5701 5701 5700 5699 5697 5696 5695 5694 5692 5691 5690 5689 5687 5686 5685 5684 5683 5682 5681 5680 5679 5678 5676 5675 5674 5673 5671 5670 5669 5667 5666 5666 5664 5663 5663 5662 5661 5661 5660 5659 5658 5657
5714 5714 5714 5714 5714 5714 5713 5713 5713 5714 5715 5715 5714 5715 5715 5714 5714 5713 5713 5713 5712 5712 5712 5712 5711 5711 5711 5710 5710 5709 5708 5707 5707 5706 5706 5705 5705 5704 5703 5702 5701 5701 5700 5700 5699 5698 5697 5696 5695 5694 5692 5691 5690 5689 5687 5686 5685 5683 5682 5681 5680 5679 5678 5677 5676 5675 5674 5673 5672 5671 5669 5668 5667 5666 5664 5663 5662 5661 5661 5660 5659 5658 5657 5657 5656 5655
5711 5711 5710 5710 5710 5710 5710 5710 5710 5711 5711 5711 5711 5711 5711 5711 5711 5711 5710 5710 5710 5710 5710 5709 5709 5709 5708 5707 5707 5706 5705 5705 5704 5704 5703 5702 5702 5701 5700 5699 5699 5698 5697 5697 5696 5695 5694 5693 5692 5691 5690 5688 5687 5686 5685 5683 5682 5681 5680 5678 5677 5676 5675 5674 5673 5673 5672 5671 5670 5669 5667 5666 5665 5664 5662 5661 5661 5660 5659 5658 5657 5656 5655 5655 5654 5653
5707 5707 5707 5706 5706 5707 5707 5707 5707 5707 5707 5707 5707 5708 5708 5708 5708 5707 5707 5707 5707 5707 5707 5707 5706 5706 5705 5705 5704 5703 5703 5702 5701 5701 5700 5700 5699 5698 5697 5696 5696 5695 5695 5694 5693 5692 5691 5691 5689 5688 5687 5686 5685 5683 5682 5681 5680 5678 5677 5676 5675 5674 5673 5672 5671 5670 5669 5668 5667 5666 5665 5664 5663 5662 5661 5659 5658 5657 5656 5656 5655 5654 5653 5653 5652 5651
5703 5703 5703 5703 5703 5703 5704 5704 5704 5704 5704 5704 5705 5705 5705 5705 5705 5704 5704 5703 5704 5704 5704 5704 5704 5703 5703 5702 5701 5700 5700 5699 5698 5698 5697 5696 5696 5695 5694 5693 5693 5692 5692 5691 5690 5689 5688 5688 5686 5685 5684 5683 5682 5681 5679 5678 5677 5676 5675 5673 5672 5671 5670 5669 5668 5667 5666 5665 5665 5664 5663 5662 5661 5660 5659 5657 5656 5656 5655 5654 5653 5652 5651 5651 5650 5650
5699 5699 5699 5699 5699 5700 5700 5700 5701 5701 5701 5701 5701 5701 5701 5701 5701 5701 5701 5701 5701 5701 5701 5701 5701 5700 5700 5699 5698 5697 5696 5696 5695 5695 5694 5694 5693 5692 5691 5690 5689 5689 5688 5688 5687 5686 5686 5685 5683 5682 5681 5680 5679 5678 5676 5675 5674 5673 5672 5671 5670 5669 5668 5667 5666 5665 5664 5663 5662 5661 5660 5660 5659 5658 5656 5656 5655 5653 5652 5652 5651 5650 5649 5649 5648 5647
5696 5696 5696 5696 5696 5696 5696 5696 5696 5697 5697 5698 5699 5699 5699 5698 5698 5698 5698 5698 5698 5698 5698 5698 5697 5697 5697 5696 5696 5694 5693 5692 5692 5691 5691 5691 5690 5689 5688 5687 5686 5685 5685 5684 5683 5682 5682 5681 5680 5679 5678 5677 5676 5675 5674 5672 5671 5670 5669 5668 5667 5666 5665 5664 5663 5662 5661 5661 5660 5659 5658 5657 5656 5655 5654 5653 5652 5651 5651 5650 5649 5648 5647 5646 5646 5646
5692 5692 5692 5692 5692 5692 5692 5693 5693 5694 5694 5695 5696 5696 5696 5695 5695 5695 5695 5695 5694 5695 5695 5695 5694 5694 5693 5693 5692 5691 5690 5689 5689 5688 5688 5687 5687 5686 5686 5684 5682 5682 5681 5681 5680 5679 5679 5678 5677 5676 5675 5674 5673 5672 5671 5670 5669 5668 5666 5666 5665 5664 5663 5662 5661 5660 5659 5658 5657 5656 5656 5655 5654 5653 5652 5651 5651 5650 5649 5648 5647 5646 5645 5645 5644 5644
5690 5689 5689 5689 5689 5689 5689 5690 5691 5691 5691 5692 5692 5692 5692 5692 5692 5692 5692 5691 5691 5691 5691 5691 5691 5690 5690 5690 5690 5689 5688 5686 5685 5685 5685 5684 5683 5683 5683 5681 5680 5678 5678 5678 5677 5676 5676 5675 5674 5673 5672 5671 5670 5669 5668 5667 5666 5665 5664 5663 5662 5661 5660 5659 5658 5657 5656 5656 5655 5654 5653 5652 5651 5651 5650 5649 5648 5647 5646 5646 5645 5644 5643 5642 5642 5641
5686 5686 5686 5686 5686 5686 5686 5687 5688 5688 5688 5689 5689 5689 5689 5689 5689 5689 5689 5688 5688 5688 5688 5688 5687 5687 5686 5686 5686 5686 5686 5684 5682 5681 5681 5681 5680 5679 5679 5678 5677 5675 5675 5675 5674 5673 5673 5671 5671 5670 5669 5668 5667 5666 5665 5664 5663 5662 5661 5660 5659 5658 5657 5656 5656 5655 5654 5653 5652 5651 5651 5650 5649 5648 5647 5646 5646 5645 5644 5643 5642 5642 5641 5641 5640 5640
5683 5683 5683 5683 5682 5682 5683 5684 5684 5685 5685 5686 5686 5686 5686 5686 5686 5686 5686 5685 5685 5685 5684 5684 5684 5683 5683 5682 5682 5682 5682 5681 5679 5678 5678 5677 5676 5676 5676 5675 5674 5672 5671 5671 5671 5670 5670 5669 5667 5666 5666 5665 5664 5663 5662 5661 5660 5659 5658 5657 5656 5656 5655 5654 5653 5652 5651 5650 5650 5649 5648 5647 5646 5646 5645 5644 5643 5642 5642 5641 5640 5640 5639 5638 5638 5637
5680 5681 5680 5680 5680 5680 5680 5681 5681 5681 5682 5682 5682 5683 5683 5682 5683 5683 5682 5682 5682 5681 5681 5681 5680 5680 5680 5679 5678 5678 5678 5678 5676 5675 5674 5674 5673 5672 5672 5671 5670 5669 5668 5668 5667 5667 5666 5665 5664 5663 5663 5661 5661 5660 5659 5658 5657 5656 5655 5654 5653 5652 5652 5651 5650 5649 5648 5648 5647 5646 5645 5645 5644 5643 5642 5641 5641 5640 5639 5639 5638 5637 5636 5636 5636 5635
5678 5678 5678 5677 5677 5677 5677 5677 5678 5679 5679 5679 5679 5679 5679 5679 5680 5680 5679 5679 5678 5678 5678 5677 5676 5676 5676 5676 5675 5674 5674 5674 5673 5671 5671 5671 5670 5669 5669 5668 5667 5666 5665 5664 5664 5664 5663 5662 5661 5660 5659 5659 5658 5657 5656 5655 5654 5653 5652 5651 5651 5650 5649 5648 5647 5646 5646 5645 5644 5643 5643 5642 5641 5641 5640 5639 5638 5637 5637 5636 5636 5635 5634 5634 5633 5633
5675 5675 5675 5676 5675 5675 5675 5675 5676 5676 5676 5676 5676 5676 5676 5676 5676 5676 5676 5676 5675 5675 5674 5674 5673 5672 5673 5672 5671 5671 5671 5671 5670 5668 5667 5667 5666 5666 5666 5665 5664 5663 5661 5661 5661 5660 5660 5659 5658 5657 5656 5656 5655 5654 5653 5652 5651 5650 5649 5648 5648 5647 5646 5645 5645 5644 5643 5642 5641 5641 5640 5639 5639 5638 5637 5636 5636 5635 5635 5634 5633 5633 5632 5632 5631 5631
5672 5672 5672 5673 5673 5673 5672 5672 5672 5672 5672 5673 5673 5673 5673 5673 5673 5673 5672 5672 5672 5671 5671 5670 5669 5669 5669 5668 5667 5667 5667 5667 5666 5665 5664 5663 5662 5661 5662 5662 5661 5660 5659 5658 5657 5656 5656 5655 5655 5654 5653 5652 5652 5651 5650 5649 5648 5647 5646 5646 5645 5644 5643 5643 5642 5641 5641 5640 5639 5638 5637 5636 5636 5635 5635 5634 5633 5633 5632 5631 5631 5631 5630 5630 5629 5629
5670 5670 5670 5670 5670 5670 5670 5670 5670 5670 5670 5670 5670 5670 5670 5670 5670 5669 5669 5668 5668 5667 5667 5666 5666 5665 5665 5664 5664 5663 5663 5663 5662 5662 5661 5660 5658 5658 5658 5658 5657 5656 5655 5655 5654 5653 5652 5651 5651 5651 5650 5650 5649 5648 5647 5646 5645 5644 5643 5643 5642 5641 5641 5640 5639 5638 5638 5637 5636 5636 5635 5634 5633 5632 5632 5631 5631 5630 5630 5629 5629 5628 5628 5627 5627 5627
5666 5666 5667 5667 5667 5667 5666 5666 5666 5666 5667 5667 5666 5666 5666 5666 5666 5665 5665 5664 5664 5664 5663 5662 5661 5661 5661 5661 5660 5660 5659 5659 5659 5658 5657 5656 5655 5655 5654 5654 5654 5653 5651 5651 5650 5650 5649 5648 5647 5647 5647 5646 5646 5645 5644 5643 5642 5641 5641 5640 5639 5638 5638 5637 5636 5636 5635 5634 5634 5633 5632 5631 5631 5630 5629 5629 5628 5628 5627 5626 5626 5626 5626 5625 5625 5625
5663 5663 5663 5663 5663 5663 5663 5663 5663 5663 5663 5663 5663 5663 5662 5662 5662 5661 5661 5661 5660 5660 5659 5658 5658 5657 5657 5657 5657 5656 5655 5656 5656 5655 5654 5653 5652 5651 5650 5651 5651 5649 5647 5646 5646 5646 5645 5644 5644 5643 5643 5643 5642 5641 5641 5640 5639 5639 5638 5637 5636 5636 5635 5634 5634 5633 5632 5631 5631 5630 5629 5629 5628 5627 5626 5626 5626 5625 5625 5624 5624 5623 5623 5623 5622 5622
5660 5660 5660 5660 5660 5660 5660 5660 5660 5660 5660 5660 5660 5659 5659 5659 5658 5658 5657 5657 5657 5656 5655 5654 5653 5653 5653 5653 5653 5653 5652 5652 5651 5651 5651 5650 5649 5647 5646 5647 5647 5646 5644 5643 5642 5642 5642 5641 5640 5640 5640 5639 5639 5638 5637 5637 5636 5636 5635 5634 5633 5633 5632 5631 5631 5630 5629 5628 5628 5627 5626 5626 5625 5625 5624 5623 5623 5622 5622 5621 5621 5621 5621 5620 5620 5620
5656 5657 5657 5657 5657 5657 5657 5657 5657 5657 5656 5656 5656 5656 5655 5655 5655 5654 5653 5653 5653 5652 5651 5650 5650 5650 5649 5650 5650 5649 5649 5648 5648 5647 5647 5647 5646 5644 5643 5643 5643 5642 5641 5640 5639 5639 5639 5638 5637 5636 5636 5636 5635 5635 5634 5633 5633 5632 5632 5631 5630 5630 5629 5628 5627 5627 5626 5625 5625 5624 5624 5623 5623 5622 5621 5621 5620 5620 5619 5619 5619 5618 5618 5617 5617 5617
5653 5653 5653 5653 5653 5653 5653 5653 5653 5653 5653 5653 5652 5652 5651 5651 5651 5650 5649 5649 5649 5648 5647 5646 5646 5646 5646 5646 5646 5645 5645 5645 5644 5644 5644 5643 5642 5641 5640 5640 5639 5638 5638 5637 5635 5634 5635 5634 5634 5633 5632 5632 5631 5631 5631 5631 5630 5629 5628 5628 5627 5626 5626 5625 5624 5624 5623 5622 5621 5621 5621 5620 5620 5619 5619 5618 5618 5617 5617 5616 5616 5616 5616 5615 5615 5615
5649 5650 5650 5650 5650 5649 5649 5649 5649 5649 5649 5648 5648 5647 5647 5647 5647 5646 5645 5645 5645 5645 5643 5643 5643 5643 5643 5642 5642 5641 5641 5641 5641 5640 5640 5640 5638 5636 5636 5636 5636 5635 5635 5634 5632 5631 5630 5631 5631 5631 5629 5628 5628 5628 5628 5627 5626 5626 5625 5625 5624 5623 5623 5622 5621 5621 5620 5619 5619 5618 5617 5617 5616 5616 5616 5616 5615 5615 5614 5614 5613 5613 5613 5613 5612 5612
5646 5646 5646 5646 5646 5646 5645 5645 5645 5645 5645 5645 5644 5644 5643 5643 5643 5642 5641 5641 5641 5641 5640 5640 5639 5639 5639 5639 5638 5637 5636 5636 5636 5637 5637 5636 5634 5633 5633 5633 5632 5631 5631 5631 5630 5627 5626 5626 5626 5627 5627 5626 5625 5624 5624 5624 5623 5622 5622 5621 5621 5620 5620 5619 5618 5617 5617 5616 5616 5615 5615 5614 5614 5613 5613 5613 5612 5612 5611 5611 5611 5611 5610 5610 5610 5610
5642 5642 5642 5642 5642 5642 5642 5641 5641 5641 5641 5641 5641 5640 5640 5639 5639 5639 5638 5637 5637 5637 5637 5636 5636 5636 5636 5635 5635 5634 5632 5632 5632 5632 5633 5632 5631 5629 5629 5629 5628 5627 5627 5627 5627 5625 5623 5622 5622 5623 5623 5623 5622 5621 5621 5620 5620 5619 5618 5618 5617 5616 5616 5616 5615 5614 5614 5613 5613 5612 5612 5611 5611 5611 5610 5610 5609 5609 5609 5609 5608 5608 5608 5607 5607 5607
5639 5639 5639 5638 5638 5638 5638 5638 5638 5637 5637 5637 5637 5636 5636 5636 5636 5635 5635 5634 5634 5634 5633 5633 5632 5631 5631 5631 5631 5631 5629 5628 5628 5628 5629 5629 5627 5625 5625 5626 5625 5624 5622 5623 5623 5623 5621 5619 5618 5618 5619 5619 5619 5618 5617 5617 5616 5616 5615 5615 5614 5613 5613 5612 5612 5611 5611 5610 5610 5609 5609 5608 5608 5608 5607 5607 5607 5606 5606 5606 5606 5606 5605 5605 5605 5604
5635 5635 5635 5635 5635 5635 5635 5634 5634 5634 5634 5633 5633 5633 5633 5632 5632 5632 5631 5631 5631 5630 5630 5629 5628 5628 5627 5627 5627 5626 5626 5625 5624 5624 5624 5624 5623 5622 5621 5622 5621 5621 5620 5619 5619 5619 5619 5617 5616 5615 5615 5615 5615 5615 5614 5614 5613 5612 5612 5611 5611 5610 5610 5609 5609 5608 5607 5607 5606 5606 5606 5606 5605 5605 5605 5604 5604 5604 5603 5603 5603 5603 5603 5602 5602 5602
5631 5631 5631 5631 5631 5631 5631 5631 5631 5631 5630 5630 5630 5630 5629 5629 5629 5628 5628 5627 5627 5626 5626 5625 5625 5624 5623 5623 5622 5622 5622 5621 5621 5620 5620 5620 5619 5618 5618 5618 5618 5617 5617 5616 5615 5615 5615 5614 5613 5612 5611 5611 5611 5611 5611 5611 5610 5609 5608 5608 5608 5607 5606 5606 5605 5605 5604 5604 5603 5603 5603 5602 5602 5602 5602 5601 5601 5601 5601 5601 5601 5600 5600 5600 5600 5599
5628 5628 5628 5628 5628 5628 5627 5627 5627 5627 5627 5626 5626 5626 5626 5625 5625 5624 5624 5623 5623 5622 5622 5621 5621 5621 5620 5619 5619 5618 5618 5617 5616 5617 5616 5616 5616 5615 5615 5614 5614 5614 5614 5612 5611 5611 5611 5610 5610 5609 5609 5608 5607 5607 5607 5607 5607 5606 5605 5605 5605 5604 5603 5602 5602 5601 5601 5601 5600 5600 5600 5599 5599 5599 5599 5599 5599 5598 5598 5598 5598 5598 5598 5597 5597 5597
5624 5624 5624 5624 5624 5624 5624 5623 5623 5623 5623 5623 5622 5622 5622 5621 5621 5621 5620 5620 5619 5619 5618 5617 5617 5616 5616 5616 5616 5615 5614 5613 5613 5613 5613 5612 5612 5612 5611 5611 5610 5610 5611 5609 5608 5608 5607 5607 5606 5606 5606 5605 5604 5603 5603 5603 5604 5603 5602 5602 5601 5601 5600 5599 5599 5598 5598 5597 5597 5597 5596 5596 5596 5596 5596 5596 5596 5596 5596 5595 5595 5595 5595 5595 5595 5595
5621 5620 5620 5621 5621 5620 5620 5620 5619 5619 5619 5619 5619 5618 5618 5618 5617 5617 5616 5616 5615 5615 5614 5614 5613 5613 5612 5612 5612 5611 5611 5610 5609 5609 5609 5609 5609 5609 5608 5607 5606 5606 5607 5606 5606 5605 5604 5603 5602 5602 5602 5601 5601 5601 5600 5600 5600 5600 5599 5599 5598 5597 5597 5596 5596 5595 5595 5594 5594 5594 5594 5593 5593 5593 5593 5593 5593 5593 5593 5593 5593 5592 5592 5592 5592 5592
5616 5616 5616 5616 5616 5616 5616 5616 5616 5616 5616 5615 5615 5614 5614 5614 5613 5613 5612 5612 5611 5611 5610 5610 5609 5609 5609 5608 5608 5608 5607 5607 5606 5606 5605 5605 5605 5605 5605 5604 5603 5603 5603 5603 5603 5602 5601 5600 5599 5598 5598 5598 5597 5597 5597 5597 5596 5596 5596 5595 5595 5594 5594 5593 5592 5592 5591 5591 5591 5591 5591 5591 5590 5590 5590 5590 5590 5590 5590 5590 5590 5590 5590 5590 5590 5590
5612 5613 5613 5613 5613 5613 5612 5612 5611 5611 5611 5611 5611 5610 5610 5610 5609 5609 5608 5608 5607 5607 5606 5606 5606 5605 5605 5605 5604 5604 5604 5603 5603 5602 5602 5601 5601 5601 5601 5601 5600 5599 5599 5599 5599 5598 5598 5597 5596 5596 5595 5594 5594 5594 5594 5594 5593 5593 5592 5592 5591 5591 5591 5590 5589 5589 5589 5588 5588 5588 5588 5587 5587 5587 5587 5587 5587 5587 5587 5587 5587 5587 5587 5587 5587 5587
5609 5609 5609 5609 5609 5609 5608 5608 5607 5607 5607 5607 5606 5606 5606 5606 5605 5605 5604 5604 5603 5603 5603 5602 5602 5602 5601 5601 5601 5601 5600 5600 5599 5599 5598 5598 5598 5597 5597 5597 5596 5596 5595 5595 5595 5595 5594 5594 5593 5592 5592 5591 5591 5590 5590 5590 5590 5590 5589 5588 5588 5588 5587 5587 5586 5586 5586 5585 5585 5585 5585 5585 5585 5584 5584 5584 5584 5584 5585 5585 5585 5585 5585 5585 5585 5585
5605 5605 5605 5605 5605 5605 5604 5604 5603 5603 5603 5603 5602 5602 5601 5601 5601 5601 5600 5600 5599 5599 5599 5599 5599 5598 5598 5598 5597 5597 5597 5596 5596 5595 5595 5594 5594 5594 5593 5593 5592 5592 5591 5591 5591 5591 5591 5591 5590 5589 5588 5588 5587 5587 5586 5587 5586 5586 5586 5585 5585 5584 5584 5584 5583 5583 5582 5582 5582 5582 5581 5581 5581 5581 5581 5581 5581 5581 5582 5582 5582 5582 5582 5582 5582 5582
5601 5601 5601 5601 5601 5600 5600 5600 5600 5599 5599 5599 5598 5598 5598 5597 5597 5597 5596 5596 5596 5595 5595 5595 5595 5595 5595 5594 5594 5593 5593 5593 5592 5591 5591 5591 5590 5590 5589 5589 5589 5588 5588 5587 5587 5586 5586 5586 5586 5586 5585 5585 5584 5583 5583 5583 5583 5583 5582 5582 5581 5581 5581 5581 5581 5580 5580 5579 5579 5579 5579 5579 5578 5578 5579 5579 5579 5579 5579 5579 5579 5579 5579 5580 5580 5580
5597 5597 5596 5596 5596 5596 5596 5596 5596 5595 5595 5595 5595 5594 5594 5594 5594 5593 5593 5592 5592 5592 5591 5592 5592 5592 5592 5591 5590 5590 5589 5589 5589 5588 5587 5587 5586 5586 5586 5585 5585 5584 5584 5584 5583 5583 5582 5582 5582 5582 5581 5581 5581 5580 5580 5580 5580 5579 5579 5578 5578 5577 5577 5577 5577 5577 5576 5576 5576 5576 5576 5576 5576 5576 5576 5576 5576 5576 5576 5576 5576 5576 5577 5577 5577 5577
5592 5592 5592 5592 5592 5592 5592 5592 5591 5591 5591 5591 5591 5590 5590 5590 5590 5590 5589 5589 5588 5588 5588 5588 5588 5588 5588 5588 5587 5586 5586 5585 5584 5584 5584 5583 5583 5582 5582 5581 5581 5580 5580 5580 5580 5579 5579 5579 5578 5578 5578 5577 5577 5576 5576 5576 5576 5576 5575 5575 5575 5574 5574 5574 5574 5574 5573 5573 5573 5572 5572 5572 5572 5572 5573 5573 5573 5573 5573 5573 5574 5574 5574 5574 5574 5574
5588 5588 5587 5587 5587 5588 5588 5588 5587 5587 5587 5587 5587 5587 5586 5586 5586 5586 5586 5585 5585 5585 5584 5584 5585 5585 5584 5584 5583 5583 5583 5581 5581 5580 5580 5580 5579 5579 5578 5577 5577 5576 5576 5576 5576 5576 5576 5575 5575 5574 5574 5574 5574 5573 5573 5573 5572 5572 5572 5571 5571 5571 5571 5571 5570 5570 5570 5570 5570 5570 5569 5569 5569 5569 5570 5570 5570 5570 5570 5571 5571 5571 5571 5571 5571 5572
5583 5583 5583 5583 5583 5584 5584 5584 5584 5584 5584 5583 5583 5583 5583 5583 5582 5582 5582 5581 5581 5581 5580 5580 5581 5581 5580 5580 5579 5579 5579 5578 5577 5576 5576 5576 5575 5575 5574 5574 5573 5573 5572 5572 5572 5571 5571 5571 5571 5571 5570 5570 5570 5570 5570 5569 5569 5568 5568 5568 5568 5567 5567 5567 5567 5567 5566 5566 5566 5566 5566 5566 5566 5566 5566 5567 5567 5567 5567 5567 5568 5568 5568 5568 5569 5569
5580 5580 5580 5579 5579 5580 5580 5580 5580 5580 5580 5580 5580 5579 5579 5579 5579 5578 5578 5578 5577 5577 5577 5576 5576 5576 5576 5576 5576 5575 5575 5574 5573 5573 5572 5572 5571 5571 5571 5570 5570 5569 5569 5568 5568 5568 5567 5567 5567 5567 5567 5566 5566 5566 5566 5566 5566 5565 5565 5564 5564 5564 5564 5564 5564 5563 5563 5563 5563 5563 5563 5563 5563 5563 5563 5564 5564 5564 5564 5564 5565 5565 5565 5565 5566 5566
5576 5576 5576 5576 5576 5576 5576 5576 5576 5576 5576 5576 5576 5576 5576 5575 5575 5575 5574 5574 5573 5573 5573 5573 5572 5572 5572 5571 5571 5571 5571 5570 5570 5569 5569 5568 5567 5567 5566 5566 5566 5566 5565 5565 5564 5564 5564 5563 5563 5563 5563 5563 5562 5562 5562 5562 5562 5561 5561 5561 5561 5561 5561 5561 5560 5560 5560 5560 5560 5560 5560 5560 5560 5560 5560 5561 5561 5561 5561 5561 5561 5562 5562 5562 5562 5563
5572 5572 5572 5572 5572 5572 5572 5572 5572 5572 5572 5572 5572 5572 5571 5571 5571 5571 5570 5570 5569 5569 5569 5569 5568 5568 5567 5567 5567 5567 5567 5566 5566 5565 5565 5564 5564 5563 5563 5562 5562 5562 5561 5561 5561 5560 5560 5560 5560 5560 5559 5559 5559 5558 5558 5558 5558 5558 5557 5557 5557 5557 5557 5557 5557 5556 5556 5556 5556 5556 5556 5556 5556 5556 5557 5557 5557 5558 5558 5558 5559 5559 5559 5559 5559 5560
5568 5568 5568 5568 5568 5568 5568 5568 5568 5568 5568 5568 5568 5568 5567 5567 5566 5566 5566 5566 5566 5565 5565 5564 5564 5564 5563 5563 5563 5563 5562 5562 5562 5561 5561 5561 5560 5560 5559 5559 5558 5558 5558 5557 5557 5557 5556 5556 5556 5556 5556 5556 5555 5554 5554 5554 5554 5554 5554 5554 5554 5554 5553 5553 5553 5553 5553 5553 5553 5553 5553 5553 5553 5553 5553 5554 5554 5554 5555 5556 5556 5556 5556 5556 5556 5556
5564 5564 5564 5564 5564 5564 5563 5563 5564 5564 5564 5564 5564 5564 5563 5563 5562 5562 5562 5562 5561 5561 5561 5561 5560 5560 5559 5559 5558 5558 5558 5558 5557 5557 5557 5556 5556 5556 5556 5555 5555 5555 5554 5553 5553 5553 5553 5552 5552 5551 5552 5552 5551 5551 5550 5550 5550 5550 5550 5550 5550 5550 5550 5550 5550 5550 5550 5549 5549 5550 5550 5550 5550 5550 5550 5551 5551 5551 5551 5552 5552 5552 5552 5552 5552 5553